West Chatham, MA

1:10 AM EST on February 28, 2017 (GMT -0500)
Chatham Municipal

Weather History for KCQX - June, 2012

Change the Weather History Date:

Tuesday, June 26, 2012

  Actual Average Record
Temperature  
Mean Temperature 66 °F -  
Max Temperature 73 °F 73 °F 91 °F (1997)
Min Temperature 59 °F 59 °F 48 °F (1986)
Growing Degree Days 16 (Base 50)    
Moisture  
Dew Point 60 °F    
Average Humidity 90    
Maximum Humidity 100    
Minimum Humidity 66    
Precipitation  
Precipitation 0.40 in - - ()
Sea Level Pressure  
Sea Level Pressure 29.59 in    
Wind  
Wind Speed 4 mph (SW)    
Max Wind Speed 8 mph    
Max Gust Speed -    
Visibility 8 miles    
Events Rain , Thunderstorm    
Averages and records for this station are not official NWS values.
T = Trace of Precipitation, MM = Missing Value Source: NWS Daily Summary

Daily Weather History Graph

Daily Weather History Graph

Search for Another Location

Airport or City:

Trip Planner

Search our weather history database for the weather conditions in past years. The results will help you decide how hot, cold, wet, or windy it might be!

Date:

Astronomy

Jun. 26, 2012 Rise Set
Actual Time 5:07 AM EDT 8:18 PM EDT
Civil Twilight 4:33 AM EDT 8:52 PM EDT
Nautical Twilight 3:49 AM EDT 9:36 PM EDT
Astronomical Twilight 2:56 AM EDT 10:29 PM EDT
Moon 12:26 PM EDT (6/26) No Moon Set
Length of Visible Light 16h 19m
Length of Day
15h 11m
Waxing Crescent, 45% of the Moon is Illuminated
Jun 26
Waxing Crescent
Jun 26
First Quarter
Jul 3
Full
Jul 10
Last Quarter
Jul 19
New

Hourly Weather History & Observations

Time (EDT) Temp. Dew Point Humidity Pressure Visibility Wind Dir Wind Speed Gust Speed Precip Events Conditions
12:52 AM 63.0 °F 61.0 °F 93% 29.64 in 10.0 mi SSE 6.9 mph - N/A   Overcast
1:40 AM 62.6 °F 62.6 °F 100% 29.61 in 4.0 mi SSE 4.6 mph - 0.03 in Rain , Thunderstorm Rain
1:52 AM 63.0 °F 62.1 °F 97% 29.63 in 8.0 mi South 5.8 mph - 0.03 in Rain Light Rain
1:57 AM 62.6 °F 62.6 °F 100% 29.62 in 8.0 mi SSE 8.1 mph - 0.00 in Rain , Thunderstorm Light Rain
2:46 AM 62.6 °F 60.8 °F 94% 29.60 in 6.0 mi SSE 5.8 mph - 0.04 in Rain , Thunderstorm Light Rain
2:52 AM 63.0 °F 62.1 °F 97% 29.59 in 5.0 mi Variable 4.6 mph - 0.05 in Rain , Thunderstorm Light Rain
3:07 AM 62.6 °F 62.6 °F 100% 29.57 in 4.0 mi South 5.8 mph - 0.03 in Rain Rain
3:17 AM 62.6 °F 62.6 °F 100% 29.57 in 3.0 mi South 4.6 mph - 0.06 in Rain Rain
3:52 AM 62.1 °F 60.1 °F 93% 29.57 in 10.0 mi SE 3.5 mph - 0.07 in   Mostly Cloudy
4:52 AM 61.0 °F 59.0 °F 93% 29.58 in 10.0 mi Calm Calm - N/A   Mostly Cloudy
5:38 AM 60.8 °F 59.0 °F 94% 29.57 in 10.0 mi Calm Calm - N/A   Overcast
5:52 AM 60.1 °F 59.0 °F 96% 29.57 in 10.0 mi Calm Calm - N/A   Overcast
6:31 AM 62.6 °F 60.8 °F 94% 29.56 in 10.0 mi Calm Calm - N/A   Mostly Cloudy
6:52 AM 63.0 °F 62.1 °F 97% 29.57 in 10.0 mi South 3.5 mph - N/A   Overcast
7:56 AM 64.4 °F 60.8 °F 88% 29.57 in 10.0 mi Calm Calm - N/A   Overcast
8:08 AM 64.4 °F 60.8 °F 88% 29.57 in 10.0 mi Variable 4.6 mph - N/A   Overcast
8:35 AM 64.4 °F 60.8 °F 88% 29.57 in 10.0 mi Variable 5.8 mph - N/A   Overcast
8:52 AM 63.0 °F 61.0 °F 93% 29.58 in 10.0 mi WNW 6.9 mph - N/A   Overcast
9:52 AM 66.0 °F 61.0 °F 84% 29.57 in 10.0 mi Variable 3.5 mph - N/A   Overcast
10:04 AM 64.4 °F 60.8 °F 88% 29.57 in 10.0 mi WNW 6.9 mph - N/A   Overcast
10:52 AM 66.0 °F 60.1 °F 81% 29.57 in 10.0 mi Variable 4.6 mph - N/A   Overcast
11:52 AM 66.9 °F 60.1 °F 79% 29.57 in 10.0 mi Variable 5.8 mph - N/A   Mostly Cloudy
12:12 PM 68.0 °F 59.0 °F 73% 29.56 in 10.0 mi NW 6.9 mph - N/A   Overcast
12:26 PM 69.8 °F 59.0 °F 68% 29.56 in 10.0 mi Variable 4.6 mph - N/A   Mostly Cloudy
12:36 PM 69.8 °F 59.0 °F 68% 29.56 in 10.0 mi Variable 6.9 mph - N/A   Mostly Cloudy
12:52 PM 71.1 °F 59.0 °F 66% 29.56 in 10.0 mi Variable 6.9 mph - N/A   Mostly Cloudy
1:52 PM 71.1 °F 61.0 °F 70% 29.56 in 10.0 mi WSW 4.6 mph - N/A   Mostly Cloudy
2:42 PM 66.2 °F 59.0 °F 78% 29.55 in 10.0 mi WSW 5.8 mph - N/A Thunderstorm Overcast
2:52 PM 66.9 °F 59.0 °F 76% 29.56 in 10.0 mi Variable 4.6 mph - N/A Thunderstorm Overcast
3:28 PM 64.4 °F 55.4 °F 73% 29.56 in 10.0 mi SW 8.1 mph - N/A   Mostly Cloudy
3:52 PM 63.0 °F 59.0 °F 87% 29.56 in 5.0 mi WSW 3.5 mph - 0.02 in Rain Light Rain
4:16 PM 62.6 °F 60.8 °F 94% 29.56 in 10.0 mi West 3.5 mph - 0.01 in Rain , Thunderstorm Light Thunderstorms and Rain
4:37 PM 62.6 °F 60.8 °F 94% 29.56 in 7.0 mi Calm Calm - 0.02 in Rain Light Rain
4:52 PM 61.0 °F 60.1 °F 97% 29.58 in 3.0 mi SW 4.6 mph - 0.04 in Rain Rain
5:14 PM 60.8 °F 60.8 °F 100% 29.57 in 7.0 mi WSW 4.6 mph - 0.01 in Rain , Thunderstorm Light Rain
5:29 PM 60.8 °F 60.8 °F 100% 29.57 in 7.0 mi WSW 4.6 mph - 0.02 in Rain Light Rain
5:52 PM 61.0 °F 60.1 °F 97% 29.59 in 10.0 mi West 3.5 mph - 0.02 in Rain Light Rain
6:08 PM 60.8 °F 59.0 °F 94% 29.59 in 2.5 mi Calm Calm - 0.04 in Rain Rain
6:12 PM 60.8 °F 59.0 °F 94% 29.60 in 3.0 mi Calm Calm - 0.04 in Rain , Thunderstorm Light Rain
6:46 PM 60.8 °F 59.0 °F 94% 29.61 in 1.8 mi Variable 3.5 mph - 0.10 in Rain , Thunderstorm Rain
6:52 PM 60.1 °F 59.0 °F 96% 29.61 in 1.2 mi Calm Calm - 0.13 in Rain Rain
7:03 PM 60.8 °F 59.0 °F 94% 29.62 in 3.0 mi Calm Calm - 0.01 in Rain Light Rain
7:52 PM 61.0 °F 59.0 °F 93% 29.62 in 10.0 mi Calm Calm - 0.01 in   Overcast
8:18 PM 60.8 °F 59.0 °F 94% 29.62 in 1.8 mi Calm Calm - 0.03 in Rain Light Rain
8:21 PM 60.8 °F 59.0 °F 94% 29.62 in 4.0 mi Calm Calm - 0.03 in Rain Light Rain
8:52 PM 60.1 °F 59.0 °F 96% 29.63 in 10.0 mi West 3.5 mph - 0.03 in   Overcast
9:52 PM 60.1 °F 57.9 °F 93% 29.65 in 10.0 mi WSW 5.8 mph - N/A   Overcast
10:52 PM 60.1 °F 57.0 °F 90% 29.64 in 10.0 mi Variable 5.8 mph - N/A   Partly Cloudy
11:52 PM 59.0 °F 55.9 °F 90% 29.64 in 10.0 mi West 5.8 mph - N/A   Clear